Wetbulb
37.03 36.29 36.58 36.92 36.43 36.51 36.53 36.66 38.22 39.81 41.98 43.89 45.59 47.81 49.76 51.22 51.72 56.14 59.66 59.47 59.17 59.27 60.02 59.69 59.17 58.66 58.28 57.81 57.94 57.47 56.54 56.28
36.03 36.57 35.69 36.59 35.19 35.18 35.23 35.74 36.53 38.53 40.31 42.32 44.27 46.61 49.31 53.60 53.87 55.79 59.24 59.09 58.62 59.33 59.43 58.88 58.74 58.16 57.77 57.68 57.81 56.83 56.56 56.48
35.15 35.39 34.58 34.45 34.54 34.31 34.61 34.77 35.70 37.08 38.83 39.97 41.71 43.42 44.95 46.78 48.98 55.70 52.08 51.23 50.73 50.03 48.50 47.01 47.13 48.15 49.72 50.49 51.20 51.52 49.86 49.40
34.40 33.45 33.55 33.72 33.56 33.02 33.30 33.75 35.01 36.04 37.07 37.33 38.47 39.61 40.54 41.96 43.91 46.23 45.65 44.52 44.06 42.89 41.61 40.90 41.25 42.70 44.45 45.79 45.91 45.36 44.45 44.00
32.13 31.84 32.52 33.07 33.04 32.64 32.47 33.25 34.26 34.96 35.20 35.49 35.46 36.27 37.53 39.08 39.45 41.11 41.67 40.67 40.10 39.41 38.94 38.96 38.61 39.44 41.16 41.32 41.43 41.29 40.66 41.07
30.41 30.18 30.18 31.45 32.54 32.46 32.63 32.92 33.70 33.40 34.11 34.07 34.78 34.89 34.99 35.60 36.25 37.34 37.45 37.52 38.04 38.13 37.92 38.47 38.13 37.97 39.29 39.01 38.82 38.70 38.41 38.63
31.94 30.27 28.76 29.07 30.85 31.97 32.72 32.11 34.32 32.42 32.41 33.73 33.46 33.05 33.13 33.08 33.59 34.16 34.11 34.48 35.14 35.75 35.95 35.29 36.66 37.01 36.93 38.30 37.96 37.60 37.11 36.32
32.07 30.38 29.09 29.13 30.03 31.55 32.07 33.12 33.47 32.60 32.07 32.53 32.20 31.70 32.25 31.97 31.57 31.42 32.32 33.01 32.34 33.99 34.44 34.03 34.90 35.51 35.65 35.82 36.26 35.71 35.16 34.46
32.67 31.75 30.72 30.42 30.00 31.52 32.10 32.05 31.51 32.20 31.37 31.84 32.17 31.29 31.81 30.96 30.12 30.28 30.63 30.61 30.70 31.34 32.78 33.12 33.70 34.04 33.99 34.21 35.14 34.48 33.73 33.71
33.28 31.26 30.74 30.18 30.49 31.04 30.94 30.64 30.10 29.84 30.91 31.43 31.72 30.72 30.77 29.57 29.97 30.19 30.10 29.75 29.22 29.87 30.74 31.75 32.16 33.62 32.95 33.18 33.42 32.98 32.65 32.55
32.98 30.86 29.83 29.92 30.39 30.10 29.22 29.72 28.79 28.93 29.87 30.96 31.14 30.27 28.81 29.34 29.08 29.35 29.41 28.47 28.85 28.38 29.38 29.73 31.16 32.78 32.85 32.18 31.86 31.25 31.12 31.35
31.90 30.89 29.59 27.76 28.66 27.73 27.28 27.11 27.51 28.67 29.27 29.30 30.07 29.41 29.68 29.12 29.14 28.98 28.57 28.26 28.07 27.77 28.10 28.39 29.68 30.74 31.94 31.93 30.22 29.90 29.93 29.13
31.17 29.90 28.53 26.22 27.75 27.09 26.29 24.52 26.26 28.17 27.33 27.51 28.44 28.86 29.09 28.60 28.32 28.45 28.52 27.67 27.22 27.55 27.58 27.89 28.67 29.49 30.04 30.33 29.99 29.49 28.67 27.35
30.02 28.21 25.47 23.37 24.39 26.22 24.19 22.71 26.46 27.59 25.25 25.97 26.59 27.59 28.49 28.76 27.92 27.87 27.84 27.54 26.55 26.55 26.77 26.74 28.30 29.35 29.25 28.82 27.94 26.66 26.11 25.98
27.30 25.60 25.41 22.83 22.68 24.35 21.75 22.00 26.76 27.08 27.25 27.36 26.59 27.17 27.78 28.51 28.82 28.32 27.27 26.87 26.45 26.17 25.88 26.28 26.93 27.57 28.46 28.37 27.95 26.09 25.48 23.72
27.10 27.11 26.54 24.18 22.43 20.11 19.07 22.18 26.60 26.72 27.29 27.37 27.29 26.61 26.52 27.09 28.06 27.78 27.95 27.68 27.03 26.57 26.00 25.85 25.72 26.20 27.25 26.94 26.50 26.77 23.45 20.94
26.81 26.36 26.51 22.45 21.63 19.02 16.18 21.69 26.72 27.21 27.23 27.57 27.30 26.65 25.22 26.31 25.76 27.53 27.53 27.17 26.84 27.17 27.04 26.12 25.94 25.93 25.91 25.32 24.78 23.04 21.92 21.84
26.51 26.69 27.00 23.82 21.58 18.90 16.06 22.05 26.27 27.70 27.58 27.22 26.72 26.53 24.06 23.70 25.94 24.03 24.01 25.00 24.65 24.13 24.89 24.82 24.25 24.34 24.15 22.74 21.75 21.98 20.60 20.15
27.73 25.88 24.76 23.48 21.92 19.54 18.21 23.44 25.65 27.58 27.34 27.59 27.45 26.90 23.99 22.80 23.33 23.77 24.72 23.82 22.42 19.15 20.67 21.33 22.42 22.56 21.45 19.92 19.58 20.11 17.44 15.85
25.68 24.90 22.38 22.03 22.93 18.49 17.45 23.47 25.06 27.21 27.52 27.38 27.35 27.22 26.04 22.11 20.36 21.10 20.43 20.95 21.33 19.13 19.01 14.60 19.97 18.52 17.58 17.18 18.63 17.64 15.74 13.99
MSLP
1027.01 1026.93 1026.67 1026.25 1025.84 1025.36 1024.82 1024.15 1023.45 1022.72 1021.89 1021.06 1020.29 1019.62 1018.92 1018.30 1017.94 1017.57 1017.30 1017.42 1017.69 1017.82 1018.07 1018.26 1018.44 1018.54 1018.82 1019.01 1019.15 1019.25 1019.63 1019.82
1027.20 1027.08 1026.96 1026.46 1026.10 1025.67 1025.14 1024.53 1023.76 1022.96 1022.11 1021.36 1020.61 1019.86 1019.01 1017.97 1017.67 1017.42 1017.22 1017.36 1017.58 1017.78 1018.02 1018.30 1018.42 1018.50 1018.66 1018.72 1018.82 1019.03 1019.02 1019.33
1027.50 1027.25 1027.00 1026.67 1026.31 1025.93 1025.39 1024.84 1024.09 1023.27 1022.46 1021.76 1021.02 1020.27 1019.57 1018.85 1018.35 1017.47 1017.75 1017.87 1018.03 1018.27 1018.68 1019.17 1019.37 1019.51 1019.37 1019.35 1019.31 1019.36 1019.67 1019.97
1027.83 1027.61 1027.37 1027.03 1026.63 1026.26 1025.69 1025.20 1024.48 1023.67 1022.93 1022.35 1021.69 1020.97 1020.42 1019.98 1019.46 1019.03 1018.90 1019.03 1019.40 1019.55 1019.87 1020.36 1020.41 1020.47 1020.44 1020.49 1020.57 1020.57 1020.89 1021.12
1028.27 1028.19 1027.97 1027.61 1027.12 1026.64 1026.08 1025.64 1024.92 1024.21 1023.51 1023.02 1022.53 1021.92 1021.37 1021.03 1020.70 1020.63 1020.43 1020.17 1020.51 1020.79 1021.05 1021.46 1021.46 1021.40 1021.34 1021.43 1021.50 1021.65 1021.85 1022.10
1028.66 1028.65 1028.47 1028.16 1027.64 1027.12 1026.66 1026.19 1025.48 1024.85 1024.24 1023.85 1023.42 1022.86 1022.48 1022.00 1021.85 1021.93 1022.02 1021.98 1021.84 1021.69 1021.88 1022.16 1022.19 1022.36 1022.20 1022.27 1022.23 1022.51 1022.72 1022.97
1028.53 1028.66 1028.58 1028.36 1028.03 1027.51 1027.11 1026.82 1026.03 1025.57 1025.21 1024.72 1024.25 1023.60 1023.39 1023.20 1023.21 1023.07 1023.29 1023.48 1023.25 1023.20 1023.07 1022.83 1023.07 1023.44 1023.15 1022.86 1022.98 1023.27 1023.44 1023.63
1028.04 1028.47 1028.60 1028.46 1028.15 1027.60 1027.19 1026.78 1026.19 1025.77 1025.56 1025.32 1025.13 1024.64 1024.43 1024.13 1023.84 1024.22 1024.61 1024.61 1024.11 1024.95 1024.13 1024.05 1023.81 1024.15 1023.95 1023.73 1023.76 1023.91 1024.18 1024.33
1027.81 1028.18 1028.40 1028.34 1028.08 1027.87 1027.56 1027.10 1026.68 1026.26 1026.31 1026.07 1025.80 1025.57 1025.36 1024.91 1024.03 1025.37 1025.13 1025.98 1026.48 1025.90 1025.34 1024.95 1024.72 1024.82 1024.44 1024.58 1024.50 1024.70 1024.88 1024.74
1027.68 1028.24 1028.45 1028.40 1028.41 1028.05 1027.97 1027.89 1027.54 1027.42 1027.13 1026.83 1026.56 1026.58 1026.06 1025.55 1025.85 1026.75 1026.73 1026.64 1026.67 1026.43 1026.42 1025.92 1025.93 1025.33 1024.85 1024.99 1025.05 1025.18 1025.07 1025.38
1027.61 1028.22 1028.58 1028.72 1028.78 1028.50 1028.49 1028.44 1028.19 1028.08 1027.73 1027.38 1027.01 1027.16 1026.90 1027.00 1027.00 1027.13 1027.16 1027.39 1027.45 1027.30 1027.04 1026.92 1026.47 1025.81 1025.60 1025.46 1025.53 1025.25 1025.67 1025.81
1027.57 1028.05 1028.76 1029.15 1029.11 1029.04 1029.10 1029.10 1028.98 1028.67 1028.38 1028.24 1027.84 1027.61 1027.33 1027.38 1027.58 1027.74 1027.80 1027.83 1027.77 1027.68 1027.92 1027.81 1027.45 1027.12 1026.65 1026.26 1026.13 1025.98 1026.24 1026.11
1027.60 1028.18 1028.82 1029.33 1029.33 1029.40 1029.54 1029.68 1029.48 1029.10 1028.93 1028.64 1028.35 1028.07 1027.99 1027.99 1028.20 1028.23 1028.22 1028.23 1028.30 1028.27 1028.10 1027.96 1027.79 1027.58 1027.22 1026.86 1026.68 1026.54 1026.44 1026.99
1027.50 1028.27 1028.93 1029.44 1029.55 1029.56 1029.74 1029.87 1029.65 1029.36 1029.18 1028.93 1028.74 1028.59 1028.54 1028.42 1028.48 1028.42 1028.51 1028.49 1028.68 1028.63 1028.40 1028.20 1027.98 1027.65 1027.57 1027.50 1027.41 1027.39 1027.53 1027.62
1027.34 1028.02 1028.57 1029.18 1029.56 1029.51 1029.84 1029.98 1029.74 1029.55 1029.38 1029.22 1029.07 1028.96 1028.83 1028.70 1028.69 1028.73 1028.80 1028.83 1028.82 1028.72 1028.70 1028.71 1028.63 1028.53 1028.31 1028.12 1027.97 1027.97 1028.00 1028.15
1026.68 1027.20 1027.75 1028.37 1029.02 1029.39 1029.61 1029.73 1029.41 1029.35 1029.26 1029.27 1029.23 1029.18 1029.15 1029.12 1029.04 1029.00 1029.12 1029.05 1028.94 1029.14 1029.35 1029.37 1029.20 1029.20 1029.06 1028.90 1028.78 1028.68 1028.68 1028.81
1025.98 1026.57 1026.99 1027.61 1028.21 1028.84 1029.16 1029.31 1029.10 1029.03 1028.97 1028.88 1028.92 1029.01 1029.09 1029.13 1029.38 1029.46 1029.49 1029.55 1029.55 1029.38 1029.42 1029.87 1029.90 1029.82 1029.58 1029.59 1029.49 1029.28 1028.91 1028.73
1024.53 1025.06 1025.96 1026.75 1027.46 1028.04 1028.49 1028.71 1028.59 1028.49 1028.58 1028.75 1028.89 1028.99 1029.23 1029.40 1029.47 1029.75 1030.24 1030.12 1030.07 1030.02 1030.20 1030.33 1030.25 1030.10 1029.85 1029.94 1030.04 1029.71 1029.39 1029.44
1023.66 1024.49 1025.19 1025.86 1026.32 1027.03 1027.77 1028.16 1028.22 1028.19 1028.31 1028.45 1028.59 1028.83 1029.25 1029.47 1029.58 1029.70 1029.92 1030.17 1030.49 1030.94 1030.92 1030.86 1030.56 1030.34 1030.36 1030.31 1030.33 1030.31 1030.51 1030.52
1022.58 1023.17 1023.98 1024.70 1025.20 1026.14 1026.89 1027.32 1027.55 1027.63 1027.73 1027.99 1028.25 1028.51 1028.79 1029.30 1029.59 1029.67 1029.88 1030.19 1030.53 1031.03 1031.25 1031.64 1030.83 1031.00 1031.02 1030.80 1030.62 1030.64 1030.86 1031.08
Wind_Speed
11 12 12 13 13 13 13 13 13 12 10 10 11 11 11 10 9 8 6 6 8 9 11 10 9 9 9 8 9 10 9 8
11 11 11 12 13 12 12 12 12 12 11 10 9 10 11 9 9 8 7 8 8 7 7 5 6 5 6 8 8 8 8 6
10 11 11 12 13 13 12 12 11 11 10 10 10 9 9 9 9 7 7 9 8 9 9 9 9 9 8 8 8 7 7 6
9 11 12 12 12 13 12 12 11 10 10 11 11 11 12 11 11 11 10 11 11 12 12 10 10 9 9 9 8 9 9 9
7 8 10 10 12 12 12 12 11 10 9 10 11 12 11 12 13 11 10 12 12 12 12 11 11 9 8 9 8 9 10 9
4 6 7 9 9 10 11 11 10 10 10 11 9 10 11 13 13 13 13 12 11 13 12 12 11 8 7 9 9 8 9 9
2 4 6 7 8 9 7 9 7 10 11 9 10 10 11 11 13 12 12 12 13 12 12 12 9 16 15 9 10 10 9 8
3 3 4 5 7 8 9 8 8 10 10 11 10 9 9 10 14 14 11 8 14 9 14 12 13 16 16 12 9 9 9 8
2 1 3 4 5 6 7 7 10 11 10 10 10 10 8 11 15 11 10 10 7 10 12 12 13 15 14 11 9 9 10 10
3 1 2 4 4 4 5 6 7 8 7 7 9 9 11 12 12 8 8 9 9 9 10 11 12 17 15 9 7 8 10 8
5 3 1 3 2 2 4 4 6 5 6 6 8 7 9 8 8 8 8 8 7 9 10 11 11 20 19 11 5 8 5 6
5 4 2 2 2 3 1 4 4 4 6 6 6 8 9 9 8 7 7 7 8 9 9 9 11 13 18 17 7 6 5 6
6 5 4 3 3 3 3 1 3 5 5 6 6 6 6 8 7 7 6 7 7 6 6 7 8 15 16 18 16 12 7 7
7 5 5 4 4 4 4 3 3 3 3 4 5 5 5 7 6 6 6 6 6 5 6 7 7 8 18 17 17 14 7 5
7 7 7 7 5 3 5 4 4 4 3 3 4 5 6 5 5 5 5 4 5 6 7 6 7 8 8 7 7 9 6 6
9 8 8 8 8 6 6 6 6 5 4 3 3 3 5 5 5 5 7 5 5 5 4 4 5 7 8 8 5 4 3 2
10 8 8 8 8 8 7 7 7 6 4 3 3 2 2 4 5 7 7 8 10 9 7 3 5 6 4 6 8 7 6 3
15 13 9 9 9 7 8 9 9 7 6 4 4 3 3 3 4 5 3 5 6 9 4 3 3 5 4 3 7 13 5 5
11 10 10 10 11 11 11 10 9 8 9 6 6 5 4 4 3 3 3 3 2 1 1 3 2 5 7 2 2 3 5 4
11 11 11 11 12 11 11 12 12 9 8 8 6 6 5 4 4 3 3 2 1 1 3 2 1 3 4 8 2 3 3 1
Wind_Direction
350 350 348 347 345 344 342 336 333 331 329 320 313 304 294 282 269 277 216 192 209 209 221 222 220 221 219 219 228 226 228 225
346 348 348 352 350 347 349 344 344 338 339 338 333 321 311 266 266 248 212 201 212 218 224 229 243 254 234 231 234 226 228 231
346 344 352 353 351 350 353 351 348 347 352 357 359 3 7 20 14 12 85 57 69 75 71 58 43 31 38 47 39 59 60 41
351 353 349 350 350 350 351 349 350 359 9 14 15 24 27 26 29 43 63 70 67 65 64 55 49 42 42 45 51 58 58 52
351 351 348 347 353 351 350 350 356 8 22 25 25 29 33 36 34 39 55 73 71 69 70 57 53 48 51 58 60 59 57 56
343 334 341 342 349 355 352 356 0 6 25 26 28 42 40 43 45 41 44 53 62 74 69 58 51 40 61 65 67 69 72 64
343 349 344 346 343 351 3 3 15 31 26 23 37 47 48 48 46 51 48 44 48 55 58 63 56 48 46 67 75 72 70 63
343 337 327 345 330 1 10 13 24 44 37 25 21 35 52 60 57 44 39 56 52 40 63 57 61 52 48 51 66 65 65 59
246 299 328 351 352 358 14 34 32 38 40 39 41 33 42 58 58 47 44 61 72 57 58 58 55 58 62 59 72 75 68 57
184 111 348 350 349 6 25 42 51 39 47 42 66 55 49 58 67 62 69 66 63 60 56 57 54 50 55 65 69 69 61 53
173 153 276 288 332 36 36 44 56 41 46 38 67 72 72 77 80 75 74 78 80 74 59 51 46 42 43 46 55 62 52 48
172 176 185 274 292 104 39 58 24 22 42 43 59 66 67 68 62 68 71 69 64 63 57 53 44 43 43 44 50 51 51 40
184 192 173 212 234 175 154 348 352 45 50 47 53 64 63 72 68 64 71 73 67 66 62 45 37 35 35 40 43 40 50 33
190 187 187 204 228 202 169 174 177 109 78 84 83 87 89 90 84 78 66 64 59 54 53 38 23 25 26 29 33 37 45 30
178 196 207 191 207 225 166 173 174 157 134 83 72 78 78 83 76 76 71 75 69 59 50 38 30 21 16 18 17 23 26 12
198 203 206 180 187 183 179 184 171 162 151 129 100 89 96 77 84 82 65 61 73 65 58 36 31 15 13 15 6 353 12 298
204 208 199 183 189 179 182 188 179 173 174 168 158 129 109 119 102 71 88 82 81 71 57 39 16 1 16 28 24 18 22 44
202 204 189 185 191 184 181 183 187 186 176 172 184 180 171 180 181 159 101 84 74 73 30 54 24 27 30 37 40 36 36 60
193 195 192 189 199 178 178 185 190 191 185 187 189 188 178 184 178 165 177 185 166 155 348 321 37 45 42 74 105 42 44 50
191 198 185 192 203 169 174 183 185 188 188 191 191 192 187 172 174 173 169 183 209 250 233 276 174 78 52 52 93 102 79 43